Regional Weather Roundup
Issued by NWS

Home | Current Version | Previous Version | Graphics & Text | Print | Product List | Glossary Off
Versions: 1 2 3 4 5 6 7 8 9 10 11 12 13 14 15 16 17 18 19 20 21 22 23 24 25 26 27

000
ASUS45 KBOU 310607
RWRCO

WEATHER ROUNDUP FOR COLORADO
NATIONAL WEATHER SERVICE DENVER/BOULDER CO
1200 AM MDT TUE MAY 31 2016

NOTE: "FAIR" INDICATES FEW OR NO CLOUDS BELOW 12000 FEET WITH NO
SIGNIFICANT WEATHER AND/OR OBSTRUCTIONS TO VISIBILITY.

COZ001>005-013-030-031-310700-
...NORTHWEST COLORADO...

CITY           SKY/WX    TMP DP  RH WIND       PRES   REMARKS
CRAIG          CLOUDY    50  37  61 CALM      30.13S
HAYDEN         FAIR      50  36  57 SW6       30.13F
MEEKER         MOCLDY    50  40  68 E3        30.14S
MOUNT WERNER   NOT AVBL
STEAMBOAT SPGS FAIR      48  37  63 E6        30.14F
WALDEN         NOT AVBL
$$

COZ006>008-011-310700-
...WEST CENTRAL VALLEYS...

CITY           SKY/WX    TMP DP  RH WIND       PRES   REMARKS
GRAND JUNCTION FAIR      58  35  42 VRB5      30.01F
MONTROSE       FAIR      56  33  42 SE5       30.09F
EAGLE          FAIR      46  37  71 CALM      30.18S
RIFLE          FAIR      50  34  54 E3        30.10S
DELTA          FAIR      58  35  41 NE3       30.05S
NUCLA          FAIR      55  32  41 E9        30.10F
$$

COZ017>023-064>068-310700-
...SOUTHWEST COLORADO...

CITY           SKY/WX    TMP DP  RH WIND       PRES   REMARKS
DURANGO        FAIR      53  27  36 CALM      30.07F
CORTEZ         FAIR      50  31  48 E6        30.05F
PAGOSA SPRINGS FAIR      48  26  43 CALM      30.15F
TELLURIDE      FAIR      43  31  62 SE7       30.27F
WOLF CREEK PAS FAIR      36  21  55 NE7       30.41F
$$

COZ009-010-012-014-032>034-037-058>063-310700-
...CENTRAL COLORADO...

CITY           SKY/WX    TMP DP  RH WIND       PRES   REMARKS
ASPEN          FAIR      40  34  79 SW8       30.20F
BUENA VISTA    FAIR      48  32  54 NW15      30.19F
COPPER MTN     NOT AVBL
BERTHOUD PASS  FAIR      30  21  69 NW24      30.39F WCI  16
COTTONWOOD PAS FAIR      48  27  43 W9        30.28F
GUNNISON       FAIR      45  34  65 CALM      30.23F
KREMMLING      FAIR      37  36  93 SW3       30.21S
LEADVILLE      FAIR      30  25  81 N5        30.29F WCI  25
MONARCH PASS   FAIR      36  25  64 W17G25    30.48F
SALIDA         FAIR      53  32  45 NW8       30.25S
SUNLIGHT       FAIR      45  28  53 CALM      30.37F
WILKERSON PASS FAIR      39  19  45 NW5       30.38F
$$

COZ069>075-310700-
...SAN LUIS VALLEY/SANGRE DE CRISTO MOUNTAINS...

CITY           SKY/WX    TMP DP  RH WIND       PRES   REMARKS
ALAMOSA        FAIR      48  34  58 NW3       30.14F
LA VETA PASS   FAIR      43  32  65 NE10      30.30F
SAGUACHE       FAIR      46  30  53 NW17      30.17F
$$

COZ035-036-038>040-310700-
...NORTHERN COLORADO FRONT RANGE...

CITY           SKY/WX    TMP DP  RH WIND       PRES   REMARKS
DENVER INTL AP MOCLDY    55  42  61 S7        30.04F
DMNS CITY PARK   N/A     56  43  61 E7        30.05R
AURORA         MOCLDY    52  42  69 S7        30.06F
FRONT RANGE AP NOT AVBL
ERIE MUNI ARPT FAIR      49  41  74 S3        30.03F
BOULDER MUN AP FAIR      55  36  47 S5        30.03S
CENTENNIAL     FAIR      52  40  63 S7        30.07S
BROOMFIELD     FAIR      55  36  47 NW6       30.06S
FORT COLLINS   FAIR      54  45  71 N15       30.09R
LONGMONT       FAIR      58  38  46 N10       30.07R
$$

COZ041-046-047-076>085-087-088-310700-
...PIKES PEAK/PALMER DIVIDE AND SOUTHERN FOOTHILLS...

CITY           SKY/WX    TMP DP  RH WIND       PRES   REMARKS
COLO. SPRINGS  FAIR      52  39  61 N8        30.10F
A. F. ACADEMY  FAIR      45  39  81 N9        30.12S
SCHRIEVER AFB  NOT AVBL
ELLICOTT       NOT AVBL
FALCON         FAIR      47  37  70 W5        30.14F
FORT CARSON    FAIR      52  40  65 NW7       30.07F
LIMON          FAIR      48  46  93 N5        30.05F
MONUMENT HILL  FAIR      45  37  76 S5        30.16R
TRINIDAD       FAIR      60  40  47 CALM      30.06S
$$

COZ042>045-048>051-090-091-310700-
...NORTHEAST COLORADO...

CITY           SKY/WX    TMP DP  RH WIND       PRES   REMARKS
GREELEY ARPT   MOCLDY    57  46  67 N15       30.06R
AKRON          FAIR      54  49  83 N13       30.02R
BURLINGTON     FAIR      57  48  72 N8        29.99F
WRAY           MOCLDY    59  52  77 W3        29.99S
STERLING       LGT RAIN  55  50  82 N10       30.03R
HOLYOKE        FAIR      59  50  72 NW12      30.01R
FORT MORGAN    FAIR      54  46  76 N13       30.04R
$$

COZ086-089-092>099-310700-
...SOUTHEAST COLORADO...

CITY           SKY/WX    TMP DP  RH WIND       PRES   REMARKS
PUEBLO         FAIR      60  45  57 W5        30.01S
LA JUNTA       FAIR      63  46  54 N12       29.97F
LAMAR          FAIR      60  48  64 W12       29.98R
SPRINGFIELD      N/A     57  48  72 N10       29.92F
$$




USA.gov is the U.S. government's official web portal to all federal, state and local government web resources and services.